Wetbulb
57.38 57.35 56.92 56.11 55.10 53.08 51.85 51.11 49.25 48.64 48.26 47.56 47.21 46.66 45.93 44.53 44.67 44.80 43.80 43.22 42.87 42.24
57.39 56.96 55.39 53.94 53.67 52.47 51.13 49.66 48.08 48.00 47.16 47.09 46.66 46.15 45.58 44.06 43.62 43.95 43.56 42.96 42.80 41.72
56.36 55.26 53.99 52.80 51.24 49.97 49.18 48.33 47.35 46.62 46.27 45.90 45.84 45.72 45.28 44.20 44.09 43.20 42.81 42.52 41.80 41.36
54.11 52.84 51.79 51.32 49.78 48.35 48.04 47.16 46.20 45.70 45.32 44.89 44.67 44.77 44.16 43.86 43.41 42.46 42.10 42.82 41.65 41.07
51.95 50.88 49.32 48.73 47.76 47.66 46.43 46.40 45.96 45.46 44.75 44.26 43.91 43.71 42.78 41.95 42.29 41.52 41.60 41.72 41.08 40.22
49.67 48.17 47.46 47.09 46.85 46.37 46.01 45.51 45.32 45.01 43.83 42.96 42.75 42.00 41.82 41.15 40.76 40.70 40.53 41.10 40.53 39.30
47.12 46.46 46.25 45.84 45.74 45.50 45.32 44.49 43.72 43.17 42.29 41.75 40.99 40.34 39.54 38.46 38.12 37.94 37.33 39.26 39.57 38.56
45.59 45.33 45.10 44.62 44.04 43.46 42.88 42.18 41.68 40.83 40.26 40.03 39.46 37.84 35.21 35.27 35.19 34.71 34.00 35.51 36.00 37.59
43.37 42.87 42.41 41.67 41.12 40.82 40.35 40.14 39.99 39.19 38.64 37.82 37.43 33.19 32.92 32.25 32.90 32.94 32.66 32.99 35.13 35.37
40.66 39.54 39.37 39.52 39.57 39.11 38.70 38.89 37.85 37.31 36.89 36.00 36.13 33.17 31.79 31.30 32.55 32.24 32.74 33.26 33.77 33.80
38.62 38.17 38.41 38.41 37.75 37.54 37.43 36.71 36.21 35.80 35.66 35.33 35.30 33.26 30.69 29.87 32.52 32.07 32.78 33.13 33.15 32.55
37.83 37.00 36.91 36.20 35.94 36.29 35.74 35.48 35.12 35.12 34.76 34.07 33.51 30.75 30.25 30.17 31.40 30.59 30.66 32.00 32.31 31.79
37.10 36.48 35.42 35.13 35.10 35.24 35.20 34.57 34.51 33.75 34.06 33.42 33.60 30.71 29.74 29.46 29.60 27.97 28.07 29.48 29.84 29.92
36.33 35.12 34.88 34.64 34.76 34.30 33.67 33.40 33.10 32.66 33.12 33.33 32.90 31.75 29.09 28.01 28.06 26.17 25.54 26.08 27.02 28.95
MSLP
1024.26 1024.64 1025.04 1025.56 1025.75 1026.24 1026.52 1026.92 1027.74 1027.98 1028.05 1028.08 1028.13 1028.15 1028.19 1028.08 1027.51 1027.48 1027.49 1027.34 1027.03 1026.68
1024.44 1024.79 1025.09 1025.77 1026.38 1026.55 1027.05 1027.11 1027.67 1028.12 1028.18 1028.16 1028.15 1028.13 1028.10 1027.87 1027.59 1027.33 1027.30 1027.12 1026.80 1026.53
1024.84 1025.35 1025.82 1026.39 1026.71 1026.98 1027.32 1027.61 1027.94 1028.12 1028.08 1028.06 1027.94 1027.74 1027.58 1027.36 1027.12 1027.01 1026.89 1026.58 1026.39 1026.37
1025.37 1025.91 1026.38 1026.65 1027.11 1027.42 1027.77 1027.93 1028.08 1028.09 1027.99 1027.81 1027.58 1027.37 1027.15 1026.92 1026.68 1026.41 1026.24 1026.12 1025.84 1025.60
1026.12 1026.44 1026.83 1027.16 1027.41 1027.75 1028.09 1028.20 1028.06 1027.87 1027.67 1027.45 1027.28 1027.21 1027.04 1026.73 1026.39 1026.00 1025.61 1025.31 1025.20 1025.04
1026.59 1026.93 1027.21 1027.53 1027.78 1028.05 1028.15 1028.10 1027.99 1027.84 1027.76 1027.65 1027.50 1027.24 1026.93 1026.61 1026.28 1025.96 1025.74 1025.40 1025.03 1024.95
1027.13 1027.49 1027.78 1028.03 1028.17 1028.28 1028.32 1028.38 1028.32 1028.23 1028.16 1027.98 1027.68 1027.43 1027.22 1027.45 1027.30 1026.98 1026.69 1026.27 1025.56 1025.03
1027.84 1028.05 1028.32 1028.51 1028.71 1028.79 1028.88 1028.78 1028.64 1028.48 1028.37 1028.21 1027.89 1027.76 1028.66 1028.53 1028.08 1027.74 1027.22 1026.57 1025.65 1024.79
1028.45 1028.60 1028.88 1029.04 1029.09 1029.08 1029.15 1029.06 1028.89 1028.70 1028.52 1028.33 1028.10 1029.14 1029.11 1029.19 1028.61 1028.06 1027.34 1026.24 1025.20 1024.69
1029.18 1029.24 1029.39 1029.42 1029.30 1029.35 1029.32 1029.16 1029.06 1028.91 1028.75 1028.59 1028.51 1029.10 1029.16 1029.26 1028.65 1027.77 1026.77 1025.90 1025.26 1024.71
1029.86 1029.82 1029.78 1029.67 1029.68 1029.67 1029.55 1029.38 1029.20 1029.01 1028.84 1028.65 1028.32 1028.77 1029.23 1029.31 1028.17 1027.42 1026.63 1026.05 1025.40 1024.90
1030.38 1030.28 1030.23 1030.09 1030.10 1029.99 1029.82 1029.56 1029.29 1029.09 1028.85 1028.71 1028.73 1029.53 1029.62 1029.26 1028.19 1027.52 1026.90 1026.06 1025.55 1025.32
1030.77 1030.69 1030.61 1030.60 1030.40 1030.24 1030.01 1029.71 1029.56 1029.26 1029.07 1028.85 1028.53 1029.18 1029.41 1029.42 1028.69 1028.06 1027.54 1026.90 1026.32 1025.84
1031.04 1031.10 1030.98 1030.93 1030.76 1030.52 1030.22 1030.03 1029.72 1029.42 1029.20 1028.79 1028.66 1029.03 1029.72 1029.88 1029.30 1028.84 1028.19 1027.33 1026.46 1025.72
Wind_Speed
8 6 6 5 2 4 3 1 3 5 6 7 8 8 8 8 7 8 8 10 8 8
7 6 4 3 3 2 2 2 1 5 7 8 9 9 9 8 10 8 8 10 10 8
6 5 4 3 2 3 4 4 6 7 8 10 10 11 10 9 10 10 10 9 10 11
6 5 4 1 2 3 5 6 7 9 10 11 12 12 12 13 14 14 13 13 14 14
6 5 4 2 3 4 6 7 9 11 12 13 14 14 15 16 16 16 16 16 16 16
6 5 4 5 5 6 7 9 11 13 14 15 15 16 17 18 17 17 18 18 16 15
7 6 6 6 6 8 10 11 12 13 14 14 15 16 15 16 17 18 18 19 19 18
7 6 7 8 9 9 10 11 13 14 14 14 14 9 12 14 16 18 20 19 19 18
8 7 8 8 9 10 11 12 12 14 14 15 12 12 13 13 15 18 18 18 17 16
9 8 9 10 10 11 13 13 14 14 14 15 15 11 10 11 14 16 16 17 16 14
9 9 10 11 12 13 12 13 13 13 14 14 12 12 11 14 16 15 16 16 16 16
10 10 12 12 13 12 12 12 12 13 13 14 14 16 15 15 14 15 17 17 18 17
10 11 12 12 12 12 12 12 11 12 12 12 13 12 14 17 12 15 13 16 18 20
10 11 11 11 11 11 11 11 11 12 12 13 13 14 16 17 13 12 13 13 13 13
Wind_Direction
208 201 222 193 256 244 294 352 39 348 339 339 334 332 329 320 314 316 319 307 310 306
193 224 203 146 213 219 356 329 321 335 328 327 322 315 308 303 309 301 295 303 291 296
177 173 130 162 228 6 341 331 334 325 322 320 312 307 301 295 293 302 294 285 294 294
145 128 136 119 38 343 350 328 323 317 313 310 310 310 308 302 297 290 290 289 282 282
124 122 92 37 360 354 331 316 306 310 311 312 316 318 314 305 303 298 294 289 291 294
100 84 46 14 355 335 321 316 317 320 321 321 319 314 315 310 311 323 331 325 323 307
68 42 26 7 346 338 333 328 327 326 325 323 324 320 342 350 336 328 323 317 316 312
58 44 23 7 350 341 333 330 330 330 327 326 321 11 10 349 333 326 317 308 302 299
37 22 14 351 340 341 342 334 332 330 328 330 328 53 38 5 334 324 314 302 308 315
19 8 2 350 344 346 337 334 334 331 331 331 324 48 24 14 333 310 308 310 319 320
13 2 356 346 349 342 339 335 333 331 333 329 328 13 37 4 319 318 322 324 321 320
7 356 350 350 345 342 336 333 332 333 333 334 333 58 29 349 332 327 317 320 325 328
359 355 348 347 341 338 334 331 334 334 332 326 320 55 17 5 335 328 331 326 322 320
359 349 353 344 340 335 333 335 331 334 336 332 3 2 23 1 342 336 322 315 313 314